Regional Weather Roundup
Issued by NWS

Home | Current Version | Previous Version | Text Only | Print | Product List | Glossary Off
Versions: 1 2 3 4 5 6 7 8 9 10 11 12 13 14 15 16 17 18 19 20 21 22 23 24 25 26 27 28 29 30 31 32 33 34 35 36 37 38 39 40 41 42 43 44 45 46 47 48 49 50

598
ASUS45 KBOI 221610
RWRID

IDAHO REGIONAL WEATHER ROUNDUP
NATIONAL WEATHER SERVICE BOISE ID
1000 AM MDT MON MAY 22 2017

NOTE: "FAIR" INDICATES FEW OR NO CLOUDS BELOW 12000 FEET
WITH NO SIGNIFICANT WEATHER AND/OR OBSTRUCTIONS TO VISIBILITY

IDZ012-014-221700-
SOUTHWEST IDAHO


CITY           SKY/WX    TMP DP  RH WIND       PRES   REMARKS
BOISE          SUNNY     66  46  48 CALM      30.21S
CALDWELL       SUNNY     65  51  60 NE5       30.21F
MOUNTAIN HOME  SUNNY     64  49  57 CALM      30.22S
$$

IDZ016-017-221700-
SOUTHCENTRAL IDAHO


CITY           SKY/WX    TMP DP  RH WIND       PRES   REMARKS
BURLEY         SUNNY     64  46  52 W6        30.24F
JEROME         SUNNY     62  47  57 CALM      30.26S
TWIN FALLS     SUNNY     66  46  48 SW7       30.26S
$$

IDZ019>023-221700-
SOUTHEAST IDAHO


CITY           SKY/WX    TMP DP  RH WIND       PRES   REMARKS
IDAHO FALLS    MOSUNNY   58  43  57 SW6       30.28F
POCATELLO      MOSUNNY   58  45  62 W5        30.28F
REXBURG        SUNNY     55  39  54 SW7       30.27F
$$

IDZ006-010-011-018-031-032-221700-
CENTRAL IDAHO MOUNTAINS


CITY           SKY/WX    TMP DP  RH WIND       PRES   REMARKS
MCCALL         SUNNY     55  41  59 CALM      30.27S
HAILEY         MOSUNNY   61  34  36 N3        30.30F
STANLEY          N/A     50  34  54 VRB3      30.35F
SALMON         SUNNY     55  39  54 CALM      30.28F
CHALLIS        SUNNY     56  37  49 CALM      30.31S
$$

IDZ002-004-006-007-026-221700-
NORTHERN IDAHO


CITY           SKY/WX    TMP DP  RH WIND       PRES   REMARKS
LEWISTON       SUNNY     65  50  58 NE6       30.22S
LOWELL           N/A     57  47  69 CALM      30.25F
COEUR D`ALENE  SUNNY     64  49  57 NE5       30.23R
MULLAN PASS    SUNNY     56  36  47 N3        30.32S
$$




USA.gov is the U.S. government's official web portal to all federal, state and local government web resources and services.